THORAD AGENA D DEB, 4946

Orbit data source: Space-Track

THORAD AGENA D DEB, 4946 is space debris in SSO originally from a launch on Wed, 08 Apr 1970 UTC launched from the Air Force Western Test Range (AFWTR). Debris objects in space refer to the collection of defunct objects orbiting the Earth. Examples of debris include non-operational satellites, rocket bodies, and fragments generated from explosions, collisions, or faulty payload assembly.

Loading next visibility...
Identifier
4946, 1970-025GG
Orbit
SSO
Country
Flag of USUS
Related business
Manufacturer
Unknown
Mission
Spacecraft
Bus & Motor
Unknown
Mass
Unknown
Launch date (UTC)
1970-04-08 (56 years ago)
Launch vehicle
Unknown
Launch site
Air Force Western Test Range (AFWTR)
Object type
Payload
Rocket body
Debris
Shape & HBR
Unknown shape, 0.1 m
Radar Cross Section
Medium (>0.1 m² and <1 m²)

Expand to show TLE details & history
Last TLE update: 6 hours ago

TLE from 6 hours ago
0 THORAD AGENA D DEB
1 04946U 70025GG  26208.28481821  .00000888  00000-0  84222-3 0  9994
2 04946  99.6729 334.6890 0015989 213.6484 176.2645 13.83900011808553
Epoch: 2026-07-27T06:50Z
TLE epoch observation values (Epoch: 2026-07-27T06:50:08.293Z)
Latitude
29.50627°
Longitude
-78.32253°
Altitude
965.382 km
Speed
7.366 km/s
True Right ascension
21h 56m 43s
True Declination
29° 21' 48"
Sunlit
Object was in full shadow at epoch
Visualization orbit readout
Latitude
Unknown
Longitude
Unknown
Altitude
Unknown
Speed
Unknown
Apparent Right ascension
Unknown
Apparent Declination
Unknown
Sunlit
N/A
Visualization observer readout
Local Sidereal Time
02:21:15
Azimuth
Unknown
Elevation
Unknown
Doppler factor
Unknown
Orbital elements
Apogee altitude
959.054 km
Perigee altitude
935.629 km
Semi-major axis
7,325.478 km
Eccentricity
0.0016
Inclination
99.6729°
RAAN
334.689°
Arg. of periapsis
213.6484°
True anomaly
176.27641°
Mean anomaly
176.2645°
Eccentric anomaly
176.27046°
Mean motion
3.4617 °/min
Orbital period
104 mins
BSTAR
0.00084222
Loading maneuver chart data...
Computing Atmospheric mass density...

Documentation

Showing up to 5 results
|